sat.trackr.live / text

‹ back to catalog

HAWK-12A

NORAD 64623 · 2025-138C

PAYLOAD ACTIVE UNKNOWN

§ Identity

Operator
Country
US
Launch date
2025-06-26
Launch site
RLLB
Launch vehicle
Mass (kg)
RCS (m²)

External: N2YO · Heavens-Above · Gunter

§ Orbital elements

Epoch: 2026-05-24T23:20:12.424992Z

Period
94.86 min
Inclination
97.4408°
Eccentricity
0.0012919
Mean motion
15.18000415 rev/d
Perigee alt
503.0 km
Apogee alt
520.8 km
Semi-major
6,890.0 km
B*
1.6910e-4
RAAN
148.1212°
Arg perigee
212.1106°
Mean anomaly
147.9342°
Rev number
5,034

§ Raw data

HAWK-12A1 64623U 25138C   26144.97236603  .00003377  00000+0  16910-3 0  99922 64623  97.4408 148.1212 0012919 212.1106 147.9342 15.18000415 50346

JSON: /api/v1/satellites/64623 · /tle

For live sub-satellite position, see the globe view (requires WebGL).

§ Visibility from observer

Set your observer location to see the next 7 days of passes ≥ 10°. The values pass through the URL so the page stays shareable.

No JS? Fill the form by hand. The geolocation button needs JavaScript.